Regional Weather Roundup
Issued by NWS Bismarck, ND

Home | Current Version | Previous Version | Graphics & Text | Print | Product List | Glossary On
Versions: 1 2 3 4 5 6 7 8 9 10 11 12 13 14 15 16 17 18 19 20 21 22 23 24 25 26 27 28 29 30 31 32 33 34 35 36 37 38 39 40 41 42 43 44 45 46 47 48 49 50
000
ASUS43 KBIS 270310
RWRBIS

NWR BROADCAST TEXT
NATIONAL WEATHER SERVICE BISMARCK ND
1000 PM CDT WED JUL 26 2017

NOTE: "FAIR" INDICATES FEW OR NO CLOUDS BELOW 12,000 FEET WITH NO
SIGNIFICANT WEATHER AND/OR OBSTRUCTIONS TO VISIBILITY.


CITY           SKY/WX    TMP DP  RH WIND       PRES   REMARKS
WILLISTON      CLEAR     81  52  36 E13       30.07R
MINOT          CLEAR     70  56  61 NE6       30.11R
MINOT AFB      CLEAR     73  56  54 E6        30.10R
BISMARCK       CLEAR     73  54  51 E9        30.11R
DICKINSON      CLEAR     73  51  46 E12       30.09R
GARRISON         N/A     72  53  51 E9        30.11R
HETTINGER ARPT CLEAR     76  52  43 E10       30.11R
JAMESTOWN      CLEAR     66  59  78 CALM      30.11R
HAZEN          FAIR      73  50  43 E7        30.11S
LINTON           N/A    N/A N/A N/A E8        30.13R
MANDAN         FAIR      73  54  49 E10       30.12R
STANLEY        FAIR      72  54  53 E10       30.14S
TIOGA          FAIR      70  50  49 E9        30.12S
WATFORD CITY   FAIR      75  50  41 E8        30.07R
$$

CITY           SKY/WX    TMP DP  RH WIND       PRES   REMARKS
GRAND FORKS    PTCLDY    67  62  84 NW3       30.07R
GRAND FORKS AF CLEAR     65  60  85 N3        30.08R
DEVILS LAKE    CLEAR     69  59  70 CALM      30.12S
FARGO          CLEAR     70  62  76 NW7       30.07R
CAVALIER       FAIR      66  63  88 CALM      30.08R
GRAFTON        FAIR      68  63  83 NW3       30.10R HAZE
GWINNER        CLEAR     66  61  82 CALM      30.10R
LANGDON        FAIR      64  63  94 CALM      30.12S
ROLLA            N/A     61  61 100 CALM      30.14R
$$

CITY           SKY/WX    TMP DP  RH WIND       PRES   REMARKS
ABERDEEN       CLEAR     71  63  75 NE5       30.09R
MOBRIDGE       CLEAR     75  58  55 E12       30.07R
BUFFALO          N/A     78  50  37 S10       30.05R
RAPID CITY     CLEAR     74  50  42 E8        30.14R
GLASGOW        CLEAR     82  44  26 E13       29.99S
SIDNEY         CLEAR     81  52  36 E9        30.04R
WOLF POINT     CLEAR     84  47  27 E9        30.00S
GLENDIVE       CLEAR     82  50  32 E10       30.03S
MILES CITY     CLEAR     87  43  21 E5        29.99S
BAKER          CLEAR     78  46  32 S12       30.07S
$$

CITY           SKY/WX    TMP DP  RH WIND       PRES   REMARKS
BILLINGS       CLOUDY    80  48  32 W8        30.05F
GREAT FALLS    MOCLDY    82  37  20 SE8       30.00S
REGINA         CLEAR     75  52  43 E9        30.07R
ESTEVAN        PTCLDY    66  55  68 E6        30.09S
$$





USA.gov is the U.S. government's official web portal to all federal, state and local government web resources and services.